Flag for Monaco Weather past 2 weeks in Monaco, Monaco

Now
73 °F

Passing clouds.


Feels Like: 76 °F
Forecast: 67 / 81 °F
Wind: 6 mph from North

Location: Nice Airport

Current Time: Aug 2, 2015 at 6:38:40 AM

Latest Report: Aug 2, 2015 at 5:30 AM


Visibility: N/A

Pressure: 29.98 "Hg

Humidity: 69%

Dew point: 63 °F

Location of MonacoLocation

Historic Weather in Monaco — Graph

°F

Monaco temperature yesterday

Maximum temperature yesterday: 82 °F (at 1:30 PM)
Minimum temperature yesterday: 73 °F (at 11:30 PM)
Average temperature yesterday: 78 °F

Past Weeks' High & Low Weather Summary

 TemperatureHumidityPressure
High97 °F (Jul 25, 1:30 PM)84% (Jul 19, 10:30 PM)30.04 "Hg (Jul 19, 10:30 PM)
Low72 °F (Jul 27, 4:00 AM)16% (Jul 25, 2:30 PM)29.59 "Hg (Jul 27, 4:30 PM)
Average81 °F60%29.83 "Hg
* Reported Jul 18 5:00 AM — Aug 2 5:00 AM, Monaco, Weather by CustomWeather, © 2015

Note: Actual official high and low records may vary slightly from our data, if they occured in-between our weather recording intervals... More about our weather records

Advertising

Monaco weather history for previous 24 hours

 ConditionsComfort  
Time TempWeatherWind HumidityBarometerVisibility
5:00 AM
Sun, Aug 2
73 °FPassing clouds.5 mph69%29.98 "HgN/A
4:30 AM73 °FPassing clouds.5 mph74%29.98 "HgN/A
3:30 AM75 °FPassing clouds.5 mph69%29.98 "HgN/A
2:30 AM75 °FPassing clouds.12 mph74%29.98 "HgN/A
2:00 AM75 °FPartly cloudy.12 mph74%29.98 "HgN/A
1:30 AM75 °FPartly cloudy.12 mph74%29.98 "HgN/A
1:00 AM75 °FPartly cloudy.9 mph74%29.98 "HgN/A
12:00 AM75 °FPassing clouds.6 mph74%29.98 "HgN/A
11:30 PM
Sat, Aug 1
73 °FClear.1 mph74%29.95 "Hg10 mi
11:00 PM75 °FClear.No wind69%29.95 "Hg10 mi
10:30 PM75 °FPassing clouds.1 mph69%29.95 "HgN/A
10:00 PM75 °FPassing clouds.No wind69%29.95 "HgN/A
9:30 PM75 °FBroken clouds.No wind69%29.92 "HgN/A
9:00 PM75 °FBroken clouds.2 mph69%29.92 "HgN/A
8:30 PM75 °FBroken clouds.3 mph74%29.92 "HgN/A
8:00 PM77 °FBroken clouds.7 mph69%29.92 "HgN/A
7:30 PM77 °FPartly sunny.7 mph74%29.92 "HgN/A
7:00 PM77 °FBroken clouds.7 mph74%29.92 "HgN/A
6:30 PM77 °FBroken clouds.9 mph69%29.92 "HgN/A
6:00 PM79 °FBroken clouds.5 mph65%29.92 "HgN/A
5:00 PM79 °FScattered clouds.8 mph65%29.92 "HgN/A
4:30 PM79 °FScattered clouds.12 mph65%29.92 "HgN/A
4:00 PM81 °FBroken clouds.9 mph62%29.92 "HgN/A
3:30 PM81 °FBroken clouds.9 mph62%29.92 "HgN/A
3:00 PM81 °FBroken clouds.9 mph58%29.92 "HgN/A
2:30 PM82 °FBroken clouds.9 mph55%29.92 "HgN/A
2:00 PM82 °FScattered clouds.7 mph55%29.92 "HgN/A
1:30 PM82 °FBroken clouds.8 mph55%29.92 "HgN/A
1:00 PM81 °FBroken clouds.8 mph54%29.92 "HgN/A
12:30 PM81 °FBroken clouds.3 mph54%29.92 "HgN/A
12:00 PM81 °FPartly sunny.5 mph58%29.92 "HgN/A
11:30 AM79 °FPartly sunny.7 mph61%29.92 "HgN/A
11:00 AM81 °FPartly sunny.8 mph54%29.89 "HgN/A
10:30 AM81 °FBroken clouds.6 mph48%29.89 "HgN/A
10:00 AM79 °FBroken clouds.7 mph48%29.89 "HgN/A
9:30 AM79 °FBroken clouds.6 mph48%29.89 "HgN/A
9:00 AM77 °FBroken clouds.8 mph51%29.89 "HgN/A
8:30 AM77 °FBroken clouds.9 mph51%29.89 "HgN/A
8:00 AM75 °FBroken clouds.10 mph57%29.86 "HgN/A
7:30 AM77 °FBroken clouds.12 mph51%29.86 "HgN/A
7:00 AM77 °FPartly cloudy.13 mph54%29.86 "HgN/A
6:30 AM75 °FPassing clouds.14 mph61%29.86 "HgN/A
6:00 AM77 °FPassing clouds.9 mph57%29.86 "HgN/A
Weather by CustomWeather, © 2015

See weather overviewHow to use our weather pages